New Haven, CT

7:57 AM EST on January 18, 2018 (GMT -0500)
Tweed-New Haven

Weather History for KHVN - February, 2012

Change the Weather History Date:

Thursday, February 23, 2012

  Actual Average Record
Temperature  
Mean Temperature 46 °F -  
Max Temperature 57 °F 40 °F 52 °F (2017)
Min Temperature 35 °F 26 °F 5 °F (2015)
Degree Days  
Heating Degree Days 19    
Moisture  
Dew Point 33 °F    
Average Humidity 61    
Maximum Humidity 93    
Minimum Humidity 30    
Precipitation  
Precipitation 0.00 in - - ()
Sea Level Pressure  
Sea Level Pressure 29.54 in    
Wind  
Wind Speed 4 mph (WNW)    
Max Wind Speed 17 mph    
Max Gust Speed 31 mph    
Visibility 10 miles    
Events      
Averages and records for this station are not official NWS values.
T = Trace of Precipitation, MM = Missing Value Source: NWS Daily Summary

Daily Weather History Graph

Daily Weather History Graph

Search for Another Location

Airport or City:

Trip Planner

Search our weather history database for the weather conditions in past years. The results will help you decide how hot, cold, wet, or windy it might be!

Date:

Astronomy

Feb. 23, 2012 Rise Set
Actual Time 6:35 AM EST 5:34 PM EST
Civil Twilight 6:07 AM EST 6:02 PM EST
Nautical Twilight 5:35 AM EST 6:34 PM EST
Astronomical Twilight 5:03 AM EST 7:06 PM EST
Moon 6:59 AM EST (2/23) 7:39 PM EST (2/23)
Length of Visible Light 11h 54m
Length of Day
10h 58m
Waxing Crescent, 3% of the Moon is Illuminated
Feb 23
Waxing Crescent
Feb 29
First Quarter
Mar 8
Full
Mar 14
Last Quarter
Mar 22
New

Hourly Weather History & Observations

Time (EST) Temp. Windchill Dew Point Humidity Pressure Visibility Wind Dir Wind Speed Gust Speed Precip Events Conditions
12:53 AM 45.0 °F - 39.9 °F 82% 29.49 in 10.0 mi Calm Calm - N/A   Clear
1:53 AM 46.0 °F 44.8 °F 42.1 °F 86% 29.46 in 10.0 mi ESE 3.5 mph - N/A   Clear
2:53 AM 45.0 °F - 42.1 °F 90% 29.41 in 9.0 mi Calm Calm - N/A   Clear
3:53 AM 45.0 °F - 42.1 °F 90% 29.39 in 7.0 mi Calm Calm - N/A   Scattered Clouds
4:53 AM 44.1 °F 42.5 °F 41.0 °F 89% 29.39 in 7.0 mi South 3.5 mph - N/A   Partly Cloudy
5:53 AM 44.1 °F - 41.0 °F 89% 29.38 in 8.0 mi Calm Calm - N/A   Mostly Cloudy
6:53 AM 43.0 °F - 41.0 °F 93% 29.39 in 10.0 mi Calm Calm - N/A   Mostly Cloudy
7:53 AM 46.0 °F - 42.1 °F 86% 29.41 in 10.0 mi Calm Calm - N/A   Overcast
8:53 AM 48.9 °F - 39.9 °F 71% 29.42 in 10.0 mi WSW 6.9 mph - N/A   Scattered Clouds
9:53 AM 52.0 °F - 39.0 °F 61% 29.43 in 10.0 mi SW 8.1 mph - N/A   Clear
10:53 AM 55.4 °F - 35.6 °F 47% 29.43 in 10.0 mi West 12.7 mph 24.2 mph N/A   Scattered Clouds
11:53 AM 57.0 °F - 30.9 °F 37% 29.45 in 10.0 mi West 12.7 mph 23.0 mph N/A   Mostly Cloudy
12:53 PM 55.9 °F - 25.0 °F 30% 29.47 in 10.0 mi West 17.3 mph 31.1 mph N/A   Scattered Clouds
1:53 PM 55.0 °F - 28.0 °F 35% 29.51 in 10.0 mi WNW 13.8 mph 25.3 mph N/A   Scattered Clouds
2:53 PM 55.9 °F - 30.9 °F 39% 29.55 in 10.0 mi NNW 12.7 mph 17.3 mph N/A   Overcast
3:53 PM 53.1 °F - 27.0 °F 37% 29.59 in 10.0 mi NW 11.5 mph 18.4 mph N/A   Mostly Cloudy
4:53 PM 51.1 °F - 26.1 °F 38% 29.65 in 10.0 mi WNW 10.4 mph 16.1 mph N/A   Clear
5:53 PM 50.0 °F - 23.0 °F 35% 29.69 in 10.0 mi NNW 6.9 mph - N/A   Clear
6:53 PM 48.0 °F - 23.0 °F 37% 29.71 in 10.0 mi NW 6.9 mph - N/A   Clear
7:53 PM 45.0 °F 41.8 °F 24.1 °F 44% 29.73 in 10.0 mi NNW 5.8 mph - N/A   Clear
8:53 PM 41.0 °F - 26.1 °F 55% 29.75 in 10.0 mi Calm Calm - N/A   Clear
9:53 PM 36.0 °F - 25.0 °F 64% 29.77 in 10.0 mi Calm Calm - N/A   Clear
10:53 PM 35.1 °F - 25.0 °F 67% 29.79 in 10.0 mi Calm Calm - N/A   Clear
11:53 PM 37.0 °F - 28.0 °F 70% 29.79 in 10.0 mi Calm Calm - N/A   Scattered Clouds